Granite Falls, MN

9:27 PM CST on December 14, 2019 (GMT -0600)
Granite Falls

Weather History for KGDB - October, 2019

Change the Weather History Date:

Friday, October 11, 2019

  Actual Average (KMVE) Record (KMVE)
Temperature  
Mean Temperature 35 °F -  
Max Temperature 37 °F 63 °F 93 °F (2015)
Min Temperature 33 °F 39 °F 5 °F (1998)
Degree Days  
Heating Degree Days 30    
Moisture  
Dew Point 32 °F    
Average Humidity 86    
Maximum Humidity 94    
Minimum Humidity 75    
Precipitation  
Precipitation 0.00 in - - ()
Sea Level Pressure  
Sea Level Pressure 29.81 in    
Wind  
Wind Speed 19 mph (WSW)    
Max Wind Speed 30 mph    
Max Gust Speed 39 mph    
Visibility 8 miles    
Events Snow    
Averages and records for this station are not official NWS values.
T = Trace of Precipitation, MM = Missing Value Source: NWS Daily Summary

Daily Weather History Graph

Daily Weather History Graph

Search for Another Location

Airport or City:

Astronomy

Oct. 11, 2019 Rise Set
Actual Time 7:32 AM CDT 6:44 PM CDT
Civil Twilight 7:03 AM CDT 7:14 PM CDT
Nautical Twilight 6:29 AM CDT 7:47 PM CDT
Astronomical Twilight 5:55 AM CDT 8:21 PM CDT
Moon 6:22 PM CDT (10/11) 5:04 AM CDT (10/11)
Length of Visible Light 12h 11m
Length of Day
11h 12m
Waxing Gibbous, 96% of the Moon is Illuminated
Oct 11
Waxing Gibbous
Oct 13
Full
Oct 21
Last Quarter
Oct 27
New
Nov 4
First Quarter

Hourly Weather History & Observations

Time (CDT) Temp. Windchill Dew Point Humidity Pressure Visibility Wind Dir Wind Speed Gust Speed Precip Events Conditions
12:15 AM 36.5 °F 26.7 °F 34.0 °F 91% 29.84 in 10.0 mi West 17.3 mph 21.9 mph N/A   Overcast
12:19 AM 36.5 °F 27.0 °F 34.0 °F 91% 29.84 in 10.0 mi West 16.1 mph 21.9 mph N/A   Overcast
12:38 AM 36.0 °F 26.7 °F 33.6 °F 91% 29.83 in 10.0 mi West 15.0 mph 21.9 mph N/A   Overcast
12:55 AM 35.6 °F 25.2 °F 33.3 °F 91% 29.81 in 10.0 mi West 18.4 mph 25.3 mph N/A   Overcast
1:15 AM 35.6 °F 25.9 °F 33.3 °F 91% 29.81 in 10.0 mi West 16.1 mph 25.3 mph N/A   Overcast
1:16 AM 35.6 °F 25.9 °F 33.3 °F 91% 29.80 in 10.0 mi West 16.1 mph 25.3 mph N/A   Overcast
1:35 AM 35.6 °F 25.9 °F 33.1 °F 91% 29.82 in 7.0 mi West 16.1 mph - N/A   Overcast
1:36 AM 35.6 °F 25.5 °F 33.1 °F 91% 29.82 in 7.0 mi West 17.3 mph - N/A   Overcast
1:58 AM 35.4 °F 26.8 °F 33.1 °F 91% 29.81 in 10.0 mi West 12.7 mph 27.6 mph N/A   Overcast
2:17 AM 35.2 °F 25.4 °F 32.5 °F 90% 29.82 in 10.0 mi West 16.1 mph 24.2 mph N/A   Overcast
2:36 AM 34.9 °F 26.2 °F 32.9 °F 92% 29.81 in 7.0 mi West 12.7 mph 19.6 mph N/A   Overcast
2:55 AM 34.9 °F 24.9 °F 33.1 °F 93% 29.81 in 10.0 mi West 16.1 mph - N/A   Overcast
2:56 AM 34.9 °F 25.3 °F 33.1 °F 93% 29.81 in 10.0 mi West 15.0 mph - N/A   Overcast
3:20 AM 35.1 °F 24.8 °F 32.9 °F 92% 29.81 in 10.0 mi West 17.3 mph 23.0 mph N/A   Overcast
3:37 AM 35.6 °F 25.9 °F 32.5 °F 89% 29.80 in 10.0 mi West 16.1 mph 23.0 mph N/A   Overcast
3:56 AM 35.6 °F 26.2 °F 32.4 °F 88% 29.82 in 10.0 mi WSW 15.0 mph 20.7 mph N/A   Overcast
4:15 AM 36.0 °F 26.0 °F 32.2 °F 86% 29.82 in 10.0 mi WSW 17.3 mph 21.9 mph N/A   Overcast
4:35 AM 36.1 °F 26.5 °F 32.4 °F 86% 29.81 in 10.0 mi WSW 16.1 mph 21.9 mph N/A   Overcast
4:36 AM 36.1 °F 25.9 °F 32.4 °F 86% 29.81 in 10.0 mi WSW 18.4 mph 23.0 mph N/A   Overcast
4:58 AM 36.5 °F 27.0 °F 32.0 °F 84% 29.81 in 10.0 mi WSW 16.1 mph 24.2 mph N/A   Overcast
5:15 AM 35.6 °F 25.9 °F 32.2 °F 87% 29.80 in 7.0 mi WSW 16.1 mph 23.0 mph N/A   Overcast
5:35 AM 35.4 °F 24.0 °F 32.5 °F 89% 29.81 in 7.0 mi WSW 21.9 mph 26.5 mph N/A   Overcast
5:36 AM 35.4 °F 24.3 °F 32.5 °F 89% 29.81 in 7.0 mi WSW 20.7 mph 26.5 mph N/A   Overcast
5:55 AM 35.1 °F 24.1 °F 32.2 °F 89% 29.82 in 10.0 mi WSW 19.6 mph 24.2 mph N/A   Overcast
5:59 AM 35.1 °F 23.8 °F 32.0 °F 89% 29.82 in 10.0 mi WSW 20.7 mph 26.5 mph N/A   Overcast
6:17 AM 35.1 °F 25.2 °F 32.0 °F 89% 29.82 in 10.0 mi WSW 16.1 mph 24.2 mph N/A   Overcast
6:36 AM 35.1 °F 24.8 °F 32.0 °F 89% 29.82 in 10.0 mi WSW 17.3 mph 23.0 mph N/A   Overcast
6:55 AM 34.9 °F 23.9 °F 31.8 °F 89% 29.82 in 10.0 mi WSW 19.6 mph - N/A   Overcast
6:56 AM 34.9 °F 23.9 °F 31.8 °F 89% 29.82 in 10.0 mi WSW 19.6 mph 26.5 mph N/A   Overcast
7:15 AM 34.7 °F 24.3 °F 31.8 °F 89% 29.82 in 10.0 mi WSW 17.3 mph 25.3 mph N/A   Overcast
7:37 AM 34.7 °F 24.3 °F 31.5 °F 88% 29.81 in 10.0 mi WSW 17.3 mph 23.0 mph N/A   Overcast
7:55 AM 34.7 °F 24.3 °F 31.8 °F 89% 29.81 in 10.0 mi SW 17.3 mph 21.9 mph N/A   Overcast
8:15 AM 34.7 °F 24.0 °F 32.0 °F 90% 29.81 in 7.0 mi SW 18.4 mph 24.2 mph N/A   Overcast
8:16 AM 34.7 °F 24.3 °F 32.0 °F 90% 29.81 in 7.0 mi SW 17.3 mph 24.2 mph N/A   Overcast
8:35 AM 34.7 °F 24.0 °F 31.8 °F 89% 29.81 in 10.0 mi SW 18.4 mph 26.5 mph N/A   Overcast
8:36 AM 34.7 °F 24.7 °F 31.8 °F 89% 29.81 in 10.0 mi SW 16.1 mph 26.5 mph N/A   Overcast
9:16 AM 35.6 °F 24.0 °F 30.9 °F 83% 29.81 in 10.0 mi SW 23.0 mph 27.6 mph N/A   Overcast
9:36 AM 36.5 °F 26.0 °F 31.5 °F 82% 29.81 in 10.0 mi SW 19.6 mph 26.5 mph N/A   Overcast
9:55 AM 36.5 °F 24.9 °F 31.1 °F 81% 29.81 in 10.0 mi WSW 24.2 mph 29.9 mph N/A   Overcast
9:56 AM 36.5 °F 25.4 °F 30.9 °F 80% 29.81 in 10.0 mi WSW 21.9 mph 29.9 mph N/A   Overcast
10:15 AM 36.5 °F 25.2 °F 30.7 °F 80% 29.81 in 10.0 mi WSW 23.0 mph 29.9 mph N/A   Overcast
10:19 AM 36.7 °F 25.7 °F 30.2 °F 77% 29.81 in 10.0 mi WSW 21.9 mph 27.6 mph N/A   Overcast
10:37 AM 37.0 °F 25.9 °F 30.4 °F 77% 29.80 in 10.0 mi WSW 23.0 mph 29.9 mph N/A   Overcast
10:55 AM 37.0 °F 25.6 °F 30.4 °F 77% 29.80 in 10.0 mi WSW 24.2 mph 32.2 mph N/A   Overcast
11:15 AM 36.9 °F 25.6 °F 30.0 °F 76% 29.80 in 10.0 mi WSW 23.0 mph 33.4 mph N/A   Overcast
11:16 AM 36.9 °F 25.6 °F 30.0 °F 76% 29.80 in 10.0 mi WSW 23.0 mph 33.4 mph N/A   Overcast
11:35 AM 37.2 °F 25.6 °F 30.4 °F 76% 29.80 in 10.0 mi WSW 25.3 mph 31.1 mph N/A   Overcast
11:36 AM 37.2 °F 25.6 °F 30.2 °F 76% 29.80 in 10.0 mi WSW 25.3 mph 31.1 mph N/A   Overcast
11:58 AM 36.9 °F 24.4 °F 30.7 °F 79% 29.80 in 10.0 mi WSW 28.8 mph 32.2 mph N/A   Overcast
12:16 PM 36.5 °F 25.4 °F 31.8 °F 83% 29.80 in 5.0 mi WSW 21.9 mph 33.4 mph N/A   Haze
12:35 PM 36.7 °F 25.1 °F 32.0 °F 83% 29.81 in 4.0 mi WSW 24.2 mph 28.8 mph N/A Snow Light Snow
12:36 PM 36.5 °F 25.7 °F 32.0 °F 84% 29.81 in 4.0 mi WSW 20.7 mph 28.8 mph N/A Snow Light Snow
12:55 PM 36.5 °F 25.2 °F 32.2 °F 84% 29.80 in 3.0 mi WSW 23.0 mph 31.1 mph N/A Snow Light Snow
12:56 PM 36.5 °F 25.7 °F 32.0 °F 84% 29.80 in 4.0 mi WSW 20.7 mph 31.1 mph N/A Snow Light Snow
1:15 PM 36.7 °F 25.4 °F 31.6 °F 82% 29.80 in 7.0 mi WSW 23.0 mph 32.2 mph N/A   Overcast
1:20 PM 36.9 °F 25.6 °F 31.8 °F 82% 29.80 in 10.0 mi WSW 23.0 mph 28.8 mph N/A   Overcast
1:37 PM 36.5 °F 24.7 °F 31.5 °F 82% 29.80 in 5.0 mi WSW 25.3 mph 32.2 mph N/A   Haze
1:55 PM 36.7 °F 26.0 °F 31.5 °F 81% 29.79 in 5.0 mi WSW 20.7 mph 28.8 mph N/A   Haze
2:15 PM 37.4 °F 25.9 °F 30.2 °F 75% 29.79 in 10.0 mi WSW 25.3 mph 33.4 mph N/A   Overcast
2:16 PM 37.4 °F 26.1 °F 30.2 °F 75% 29.79 in 10.0 mi WSW 24.2 mph 33.4 mph N/A   Overcast
2:35 PM 37.2 °F 24.9 °F 30.4 °F 76% 29.80 in 7.0 mi West 28.8 mph 34.5 mph N/A   Overcast
2:36 PM 37.2 °F 24.9 °F 30.6 °F 77% 29.80 in 7.0 mi West 28.8 mph 34.5 mph N/A   Overcast
2:58 PM 36.5 °F 24.7 °F 31.1 °F 81% 29.80 in 4.0 mi WSW 25.3 mph 36.8 mph N/A Snow Light Snow
3:17 PM 36.5 °F 24.4 °F 31.3 °F 81% 29.80 in 4.0 mi WSW 26.5 mph 31.1 mph N/A Snow Light Snow
3:36 PM 36.3 °F 23.5 °F 30.6 °F 80% 29.80 in 5.0 mi WSW 29.9 mph 39.1 mph N/A Snow Light Snow
3:55 PM 34.7 °F 22.0 °F 31.5 °F 88% 29.81 in 2.5 mi WSW 26.5 mph 32.2 mph N/A Snow Light Snow
3:56 PM 34.7 °F 21.5 °F 31.5 °F 88% 29.81 in 2.5 mi WSW 28.8 mph 36.8 mph N/A Snow Light Snow
4:15 PM 34.2 °F 21.0 °F 31.1 °F 89% 29.81 in 2.0 mi WSW 27.6 mph 39.1 mph N/A Snow Light Snow
4:19 PM 34.0 °F 21.0 °F 31.1 °F 89% 29.81 in 2.0 mi WSW 26.5 mph 39.1 mph N/A Snow Light Snow
4:37 PM 34.7 °F 22.5 °F 31.6 °F 89% 29.81 in 4.0 mi WSW 24.2 mph 34.5 mph N/A   Overcast
4:56 PM 33.8 °F 22.2 °F 31.6 °F 92% 29.82 in 1.5 mi WSW 20.7 mph 29.9 mph N/A Snow Light Snow
5:15 PM 33.8 °F 21.3 °F 31.8 °F 92% 29.82 in 2.0 mi WSW 24.2 mph 27.6 mph N/A Snow Light Snow
5:35 PM 33.8 °F 22.2 °F 31.5 °F 91% 29.82 in 1.5 mi WSW 20.7 mph 31.1 mph N/A Snow Light Snow
5:36 PM 33.8 °F 22.2 °F 31.5 °F 91% 29.82 in 1.5 mi WSW 20.7 mph 31.1 mph N/A Snow Light Snow
5:58 PM 33.4 °F 21.7 °F 31.5 °F 92% 29.83 in 2.0 mi WSW 20.7 mph 32.2 mph N/A Snow Light Snow
6:16 PM 33.1 °F 20.9 °F 31.5 °F 94% 29.82 in 1.2 mi WSW 21.9 mph 27.6 mph N/A Snow Light Snow
6:35 PM 33.1 °F 21.2 °F 31.1 °F 92% 29.82 in 1.5 mi WSW 20.7 mph 27.6 mph N/A Snow Light Snow
6:36 PM 33.1 °F 20.9 °F 31.1 °F 92% 29.82 in 1.5 mi WSW 21.9 mph 27.6 mph N/A Snow Light Snow
6:55 PM 33.3 °F 21.2 °F 31.1 °F 92% 29.82 in 2.0 mi WSW 21.9 mph 28.8 mph N/A Snow Light Snow
6:56 PM 33.3 °F 21.8 °F 31.1 °F 92% 29.82 in 2.0 mi WSW 19.6 mph 26.5 mph N/A Snow Light Snow
7:15 PM 34.0 °F 22.1 °F 30.7 °F 88% 29.82 in 7.0 mi WSW 21.9 mph 28.8 mph N/A Snow Light Snow
7:19 PM 34.0 °F 22.4 °F 30.7 °F 88% 29.82 in 5.0 mi WSW 20.7 mph 26.5 mph N/A Snow Light Snow
7:38 PM 34.3 °F 22.6 °F 30.6 °F 86% 29.82 in 10.0 mi WSW 21.9 mph 28.8 mph N/A   Overcast
8:15 PM 34.0 °F 22.4 °F 31.5 °F 90% 29.81 in 10.0 mi WSW 20.7 mph 28.8 mph N/A   Overcast
8:16 PM 34.0 °F 21.8 °F 31.5 °F 90% 29.81 in 10.0 mi SW 23.0 mph 28.8 mph N/A Snow Light Snow
8:35 PM 33.8 °F 21.9 °F 32.0 °F 93% 29.81 in 5.0 mi WSW 21.9 mph 26.5 mph N/A Snow Light Snow
8:58 PM 33.8 °F 22.8 °F 32.0 °F 93% 29.81 in 7.0 mi SW 18.4 mph 24.2 mph N/A Snow Light Snow
9:16 PM 34.3 °F 22.9 °F 31.6 °F 90% 29.80 in 10.0 mi SW 20.7 mph 27.6 mph N/A Snow Light Snow
9:35 PM 34.3 °F 22.6 °F 31.8 °F 90% 29.80 in 10.0 mi SW 21.9 mph 29.9 mph N/A Snow Light Snow
9:36 PM 34.3 °F 22.6 °F 31.8 °F 90% 29.80 in 10.0 mi SW 21.9 mph 29.9 mph N/A Snow Light Snow
9:55 PM 34.0 °F 21.8 °F 32.0 °F 92% 29.80 in 2.0 mi SW 23.0 mph 32.2 mph N/A Snow Light Snow
9:56 PM 34.0 °F 22.7 °F 32.0 °F 92% 29.80 in 2.5 mi SW 19.6 mph 32.2 mph N/A Snow Light Snow
10:19 PM 34.3 °F 22.3 °F 31.5 °F 89% 29.79 in 4.0 mi WSW 23.0 mph 32.2 mph N/A Snow Light Snow
10:35 PM 34.7 °F 23.7 °F 30.7 °F 85% 29.78 in 10.0 mi SW 19.6 mph 29.9 mph N/A   Overcast
10:55 PM 34.7 °F 23.1 °F 30.9 °F 86% 29.77 in 7.0 mi WSW 21.9 mph 25.3 mph N/A Snow Light Snow
11:15 PM 34.7 °F 22.0 °F 30.0 °F 83% 29.77 in 10.0 mi WSW 26.5 mph 31.1 mph N/A   Overcast
11:16 PM 34.7 °F 22.2 °F 30.0 °F 83% 29.77 in 10.0 mi WSW 25.3 mph 31.1 mph N/A   Overcast
11:39 PM 34.7 °F 22.5 °F 29.3 °F 81% 29.76 in 10.0 mi WSW 24.2 mph 32.2 mph N/A   Overcast
11:56 PM 34.7 °F 22.8 °F 28.9 °F 79% 29.76 in 10.0 mi WSW 23.0 mph 34.5 mph N/A   Overcast